FW1923 Weather Reports


time (UTC)temp
C
wind
direction
speed
KPH
gust
KPH
rain 1hr
cm
rain 24hr
cm
rain mn
cm
humidity
%
barometer
mb
20260906130029 19 88 1.6 6.4 0.00 0.00 0.00 96 1018.0
20260906124524 19 74 1.6 6.4 0.00 0.00 0.00 96 1018.0
20260906123034 18 70 0.0 0.0 0.00 0.00 0.00 97 1017.8
20260906121516 18 70 0.0 3.2 0.00 0.00 0.00 97 1017.8
20260906120012 17 70 0.0 3.2 0.00 0.00 0.00 96 1017.4
20260906114509 17 70 0.0 3.2 0.00 0.00 0.00 96 1017.4
20260906113006 17 61 1.6 4.8 0.00 0.00 0.00 96 1017.4
20260906111505 17 61 1.6 4.8 0.00 0.00 0.00 96 1017.2
20260906110004 17 59 3.2 6.4 0.00 0.00 0.00 96 1017.0
20260906104504 17 58 1.6 4.8 0.00 0.00 0.00 96 1017.0
20260906103003 18 58 0.0 0.0 0.00 0.00 0.00 96 1017.0
20260906101602 17 55 1.6 8.0 0.00 0.00 0.00 96 1016.8
20260906100002 18 67 1.6 6.4 0.00 0.00 0.00 96 1016.8
20260906094559 18 69 3.2 6.4 0.00 0.00 0.00 96 1016.5
20260906093104 18 70 3.2 8.0 0.00 0.00 0.00 96 1016.4
20260906091559 18 53 4.8 8.0 0.00 0.00 0.00 96 1016.6
20260906090113 18 37 3.2 6.4 0.00 0.00 0.00 96 1016.6
20260906084608 18 32 1.6 4.8 0.00 0.00 0.00 96 1016.5
20260906083056 18 30 1.6 4.8 0.00 0.00 0.00 95 1016.4
20260906081557 18 30 1.6 4.8 0.00 0.00 0.00 95 1016.5
20260906080057 17 30 0.0 0.0 0.00 0.00 0.00 95 1016.3
20260906074603 17 67 0.0 0.0 0.00 0.00 0.00 95 1016.3
20260906073058 17 67 0.0 0.0 0.00 0.00 0.00 94 1016.3
20260906071552 17 67 0.0 0.0 0.00 0.00 0.00 94 1016.2
20260906070112 17 67 0.0 0.0 0.00 0.00 0.00 94 1016.3
20260906064550 17 67 0.0 0.0 0.00 0.00 0.00 94 1016.3
20260906063049 17 67 0.0 0.0 0.00 0.00 0.00 93 1016.4
20260906061601 17 67 0.0 0.0 0.00 0.00 0.00 94 1016.4
20260906060045 17 67 0.0 0.0 0.00 0.00 0.00 93 1016.2
20260906054543 17 67 0.0 0.0 0.00 0.00 0.00 93 1016.2
20260906053045 18 67 0.0 0.0 0.00 0.00 0.00 93 1016.1
20260906051540 18 67 0.0 0.0 0.00 0.00 0.00 93 1016.1
20260906050050 18 67 0.0 0.0 0.00 0.00 0.00 93 1015.8
20260906044535 18 67 0.0 0.0 0.00 0.00 0.00 93 1015.7
20260906043042 18 67 0.0 0.0 0.00 0.00 0.00 93 1015.4
20260906041534 18 67 0.0 3.2 0.00 0.00 0.00 93 1015.3
20260906040031 18 67 3.2 8.0 0.00 0.00 0.00 93 1015.2
20260906034530 19 65 3.2 9.7 0.00 0.00 0.00 93 1015.3
20260906033030 19 71 4.8 8.0 0.00 0.00 0.00 93 1015.3
20260906031529 19 76 3.2 12.9 0.00 0.00 0.00 92 1015.3
20260906030027 19 61 4.8 12.9 0.00 0.00 0.00 92 1015.3
20260906024526 19 44 1.6 8.0 0.00 0.00 0.00 92 1015.3
20260906023024 19 68 4.8 12.9 0.00 0.00 0.00 92 1015.0
20260906021527 19 79 3.2 9.7 0.00 0.00 0.00 92 1015.0
20260906020022 20 53 1.6 6.4 0.00 0.00 0.00 91 1015.2
20260906014528 20 53 1.6 4.8 0.00 0.00 0.00 91 1015.1
20260906013019 20 34 1.6 4.8 0.00 0.00 0.00 90 1015.0
20260906011518 20 35 0.0 8.0 0.00 0.00 0.00 90 1015.0
20260906010016 20 50 1.6 9.7 0.00 0.00 0.00 90 1015.1
20260906004515 20 34 3.2 14.5 0.00 0.00 0.00 91 1014.9
20260906003014 21 44 4.8 14.5 0.00 0.00 0.00 91 1014.9
20260906001513 21 76 6.4 14.5 0.00 0.00 0.00 91 1015.0
20260906000013 21 77 8.0 19.3 0.00 0.00 0.00 90 1014.9
20260905234510 21 56 9.7 17.7 0.00 0.00 0.00 90 1015.0
20260905233011 21 72 6.4 16.1 0.00 0.00 0.00 91 1015.0
20260905231513 21 73 11.3 22.5 0.00 0.00 0.00 90 1014.8
20260905230005 21 53 8.0 20.9 0.00 0.00 0.00 90 1014.8
20260905224503 21 51 8.0 19.3 0.00 0.00 0.00 89 1014.6
20260905223002 21 66 8.0 17.7 0.00 0.00 0.00 89 1014.6
20260905221559 21 71 11.3 22.5 0.00 0.00 0.00 88 1014.4
20260905220106 22 61 14.5 24.1 0.00 0.00 0.00 88 1014.3
20260905214559 22 76 12.9 24.1 0.00 0.00 0.00 87 1014.1
20260905213057 23 34 11.3 25.7 0.00 0.00 0.00 86 1013.9
20260905211556 23 78 12.9 22.5 0.00 0.00 0.00 85 1013.7
20260905210055 23 64 11.3 24.1 0.00 0.00 0.00 85 1013.7
20260905204555 23 18 11.3 20.9 0.00 0.00 0.00 85 1013.7
20260905203059 23 19 9.7 22.5 0.00 0.00 0.00 85 1013.7
20260905201554 24 55 14.5 27.4 0.00 0.00 0.00 85 1013.7
20260905200056 25 55 16.1 25.7 0.00 0.00 0.00 84 1013.7
20260905194551 25 84 16.1 24.1 0.00 0.00 0.00 83 1013.4
20260905193050 25 51 11.3 27.4 0.00 0.00 0.00 83 1013.6
20260905191548 25 9 8.0 22.5 0.00 0.00 0.00 83 1013.6
20260905190054 25 70 12.9 19.3 0.00 0.00 0.00 83 1013.5
20260905184557 25 62 4.8 17.7 0.00 0.00 0.00 84 1013.8
20260905183048 25 44 4.8 19.3 0.00 0.00 0.00 85 1013.7
20260905181542 24 82 6.4 14.5 0.00 0.00 0.00 85 1013.9
20260905180040 24 63 4.8 16.1 0.00 0.00 0.00 87 1013.9
20260905174538 24 58 4.8 11.3 0.00 0.00 0.00 87 1014.0
20260905173037 24 49 4.8 11.3 0.00 0.00 0.00 87 1014.1
20260905171537 23 40 3.2 9.7 0.00 0.00 0.00 89 1014.0
20260905170038 23 53 6.4 17.7 0.00 0.00 0.00 89 1014.2
20260905164536 23 47 4.8 14.5 0.00 0.66 0.00 90 1014.4
20260905163031 23 73 3.2 12.9 0.00 0.66 0.00 90 1014.3
20260905161529 23 33 4.8 11.3 0.00 0.66 0.00 90 1014.3
20260905160026 23 68 4.8 14.5 0.00 0.66 0.00 93 1014.3
20260905154522 22 82 8.0 14.5 0.00 0.66 0.00 94 1014.2
20260905153022 22 50 4.8 8.0 0.00 0.66 0.00 94 1014.2
20260905151518 22 98 4.8 11.3 0.00 0.66 0.00 94 1014.0
20260905150019 22 69 4.8 11.3 0.00 0.66 0.00 95 1013.9
20260905144513 22 46 4.8 12.9 0.00 0.66 0.00 95 1013.7
20260905143019 22 56 4.8 12.9 0.00 0.66 0.00 95 1013.4
20260905141504 22 49 8.0 16.1 0.00 0.66 0.00 95 1013.4
20260905140001 22 44 8.0 17.7 0.00 0.66 0.00 96 1013.4
20260905134603 21 65 6.4 14.5 0.00 0.66 0.00 96 1013.3
20260905133106 21 59 6.4 9.7 0.00 0.66 0.00 97 1013.4
20260905131609 21 53 4.8 11.3 0.00 0.66 0.00 97 1013.9